Página principal
METAR-TAF:

METAR-TAF

Aeroportos :

Orange_County_Airport

Orange, Texas, Estados Unidos

latitude: 30-04-09N, longitude: 093-48-13W, altura: 4 m

Observação actual do tempo

O boletim foi feito há 10 minutos, às 17:55 UTC
Vento calmo
Temperatura 21°C
Humidade 33%
Pressão 1025 hPa
Visibilidade: 16.1 km
Céu limpo

METAR: KORG 201755Z AUTO 00000KT 10SM CLR 21/04 A3026 RMK AO2 T02050036 10208 20063

Hora: 13:05 (18:05 UTC)


TAF: em falta

Observações e previsões do tempo de mais de 4000 aeroportos (mensagens METAR e TAF).

As estações disponíveis são os pontos amarelos e vermelhos sobre o mapa.

Mova o rato sobre o mapa para ver o nome da estação.

Depois clique no ponto para visualizar as observações e previsões meteorológicas.

Para alterar o mapa : clique nos botões verdes com uma cruz preta para aumentar o zoom; no botão verde com uma pitada de zoom; ou nas setas verdes para mapas adjacentes.


METAR-TAF: